Weather in Borovskoy

Kazakhstan     53˚47′42″N   64˚11′00″E
temp.,
°C
wind,
m/s
gust,
m/s
humid.,
%
clouds,
%
prec.,
mm/h
press.,
hPa
HPBL,
m
3 december, thu
thu300:00−15˚ne46950 0.0 104285
03:00−15˚ne45960 0.0 104084
06:00−16˚nne47960 0.0 1040110
09:00−15˚ne589070 0.0 1039159
12:00−14˚ne588884 0.0 1039214
15:00−13˚ne588984 0.0 1038235
18:00−15˚nne499179 0.0 1038164
21:00−16˚ne469173 0.0 1038111
4 december, fri
fri400:00−16˚nne469154 0.0 1038102
03:00−17˚nne34920 0.0 103857
06:00−17˚nne33900 0.0 103938
09:00−17˚n339030 0.0 103829
12:00−15˚nnw239065 0.0 103986
15:00−13˚nnw249198 0.0 1038159
18:00−14˚nnw339599 0.0 103949
21:00−14˚n3496100 0.0 103884
5 december, sat
sat500:00−15˚nne339797 0.0 103958
03:00−16˚nne339775 0.0 103944
06:00−17˚nne339769 0.0 104036
09:00−17˚nne239747 0.0 104022
12:00−16˚ne229753 0.0 104160
15:00−15˚ne129655 0.0 104251
18:00−17˚ne229635 0.0 104220
21:00−18˚e12970 0.0 104220
6 december, sun
sun600:00−18˚ene11970 0.0 104320
03:00−18˚se11970 0.0 104320
06:00−18˚wsw01960 0.0 104320
09:00−18˚ssw11950 0.0 104320
12:00−16˚sw22930 0.0 104326
15:00−15˚sw22910 0.0 104346
18:00−17˚sw23910 0.0 104121
21:00−17˚sw239029 0.0 104125
7 december, mon
mon700:00−16˚sw338964 0.0 104148
03:00−16˚wsw348982 0.0 104050
06:00−17˚sw348941 0.0 103962
09:00−17˚sw44900 0.0 103874
12:00−15˚sw46910 0.0 1037127
15:00−13˚wsw47910 0.0 1036178
18:00−15˚wsw46920 0.0 103589
21:00−15˚wsw34880 0.0 103559